| time (UTC) | temp F | wind direction | speed MPH | gust MPH | rain 1hr in | rain 24hr in | rain mn in | humidity % | barometer mb |
| 20260505125003 | 68 | 11 | 4.0 | 8.0 | 0.00 | 0.00 | 0.00 | 59 | 1008.1 |
| 20260505124002 | 67 | 20 | 3.0 | 5.0 | 0.00 | 0.00 | 0.00 | 61 | 1007.9 |
| 20260505123503 | 66 | 34 | 1.0 | 3.0 | 0.00 | 0.00 | 0.00 | 62 | 1007.9 |
| 20260505123004 | 66 | 9 | 3.0 | 6.0 | 0.00 | 0.00 | 0.00 | 62 | 1007.9 |
| 20260505122003 | 65 | 13 | 3.0 | 7.0 | 0.00 | 0.00 | 0.00 | 64 | 1008.0 |
| 20260505121503 | 65 | 6 | 4.0 | 8.0 | 0.00 | 0.00 | 0.00 | 65 | 1008.0 |
| 20260505120502 | 64 | 18 | 2.0 | 3.0 | 0.00 | 0.00 | 0.00 | 67 | 1008.1 |
| 20260505115503 | 63 | 7 | 3.0 | 6.0 | 0.00 | 0.00 | 0.00 | 68 | 1008.1 |
| 20260505113503 | 61 | 17 | 2.0 | 3.0 | 0.00 | 0.00 | 0.00 | 72 | 1008.2 |
| 20260505112503 | 60 | 26 | 1.0 | 2.0 | 0.00 | 0.00 | 0.00 | 73 | 1008.1 |
| 20260505112003 | 60 | 19 | 1.0 | 2.0 | 0.00 | 0.00 | 0.00 | 72 | 1008.3 |
| 20260505111004 | 60 | 17 | 0.0 | 1.0 | 0.00 | 0.00 | 0.00 | 72 | 1008.3 |
| 20260505100502 | 57 | 40 | 1.0 | 3.0 | 0.00 | 0.00 | 0.00 | 75 | 1007.9 |
| 20260505092003 | 58 | 5 | 0.0 | 2.0 | 0.00 | 0.00 | 0.00 | 74 | 1007.3 |
| 20260505084003 | 58 | 10 | 1.0 | 3.0 | 0.00 | 0.00 | 0.00 | 73 | 1007.3 |
| 20260505083503 | 58 | 11 | 1.0 | 3.0 | 0.00 | 0.00 | 0.00 | 73 | 1007.4 |
| 20260505075003 | 59 | 5 | 0.0 | 1.0 | 0.00 | 0.00 | 0.00 | 70 | 1007.4 |
| 20260505073004 | 59 | 5 | 0.0 | 1.0 | 0.00 | 0.00 | 0.00 | 69 | 1007.3 |
| 20260505072503 | 59 | 5 | 0.0 | 2.0 | 0.00 | 0.00 | 0.00 | 69 | 1007.3 |
| 20260505071003 | 59 | 5 | 1.0 | 2.0 | 0.00 | 0.00 | 0.00 | 69 | 1007.4 |
| 20260505070004 | 60 | 12 | 1.0 | 2.0 | 0.00 | 0.00 | 0.00 | 68 | 1007.3 |
| 20260505065503 | 60 | 12 | 0.0 | 2.0 | 0.00 | 0.00 | 0.00 | 68 | 1007.3 |
| 20260505064002 | 60 | 12 | 0.0 | 1.0 | 0.00 | 0.00 | 0.00 | 67 | 1007.3 |
| 20260505063004 | 60 | 12 | 0.0 | 2.0 | 0.00 | 0.00 | 0.00 | 67 | 1007.3 |
| 20260505062004 | 60 | 5 | 0.0 | 1.0 | 0.00 | 0.00 | 0.00 | 67 | 1007.4 |
| 20260505061003 | 60 | 5 | 0.0 | 2.0 | 0.00 | 0.00 | 0.00 | 66 | 1007.5 |
| 20260505055503 | 61 | 5 | 0.0 | 1.0 | 0.00 | 0.00 | 0.00 | 66 | 1007.5 |
| 20260505053004 | 61 | 17 | 1.0 | 3.0 | 0.00 | 0.00 | 0.00 | 64 | 1007.6 |
| 20260505051503 | 62 | 18 | 1.0 | 3.0 | 0.00 | 0.00 | 0.00 | 63 | 1007.7 |
| 20260505051003 | 62 | 5 | 0.0 | 3.0 | 0.00 | 0.00 | 0.00 | 63 | 1007.8 |
| 20260505050503 | 62 | 10 | 1.0 | 3.0 | 0.00 | 0.00 | 0.00 | 62 | 1007.8 |
| 20260505041503 | 62 | 12 | 2.0 | 3.0 | 0.00 | 0.00 | 0.00 | 60 | 1007.9 |
| 20260505040503 | 62 | 13 | 1.0 | 3.0 | 0.00 | 0.00 | 0.00 | 59 | 1008.0 |
| 20260505035003 | 63 | 12 | 1.0 | 3.0 | 0.00 | 0.00 | 0.00 | 58 | 1008.1 |
| 20260505034503 | 63 | 13 | 1.0 | 5.0 | 0.00 | 0.00 | 0.00 | 58 | 1008.1 |
| 20260505034003 | 63 | 15 | 2.0 | 5.0 | 0.00 | 0.00 | 0.00 | 58 | 1008.0 |
| 20260505033003 | 63 | 15 | 2.0 | 5.0 | 0.00 | 0.00 | 0.00 | 56 | 1008.1 |
| 20260505032503 | 63 | 24 | 3.0 | 8.0 | 0.00 | 0.00 | 0.00 | 56 | 1008.1 |
| 20260505032004 | 64 | 9 | 2.0 | 5.0 | 0.00 | 0.00 | 0.00 | 55 | 1008.1 |
| 20260505031503 | 64 | 23 | 3.0 | 5.0 | 0.00 | 0.00 | 0.00 | 55 | 1008.1 |
| 20260505031003 | 64 | 11 | 3.0 | 6.0 | 0.00 | 0.00 | 0.00 | 54 | 1008.1 |
| 20260505030003 | 64 | 27 | 2.0 | 6.0 | 0.00 | 0.00 | 0.00 | 54 | 1008.2 |
| 20260505025503 | 64 | 12 | 2.0 | 3.0 | 0.00 | 0.00 | 0.00 | 53 | 1008.2 |
| 20260505024003 | 65 | 24 | 2.0 | 5.0 | 0.00 | 0.00 | 0.00 | 52 | 1008.2 |
| 20260505023503 | 65 | 11 | 2.0 | 6.0 | 0.00 | 0.00 | 0.00 | 52 | 1008.3 |
| 20260505022504 | 65 | 27 | 3.0 | 8.0 | 0.00 | 0.00 | 0.00 | 52 | 1008.3 |
| 20260505022003 | 65 | 4 | 2.0 | 6.0 | 0.00 | 0.00 | 0.00 | 52 | 1008.3 |
| 20260505021003 | 66 | 11 | 3.0 | 6.0 | 0.00 | 0.00 | 0.00 | 51 | 1008.4 |
| 20260505020504 | 66 | 16 | 2.0 | 5.0 | 0.00 | 0.00 | 0.00 | 51 | 1008.3 |
| 20260505020005 | 66 | 7 | 2.0 | 3.0 | 0.00 | 0.00 | 0.00 | 50 | 1008.3 |
| 20260505015503 | 66 | 8 | 2.0 | 3.0 | 0.00 | 0.00 | 0.00 | 50 | 1008.2 |
| 20260505015003 | 66 | 25 | 2.0 | 7.0 | 0.00 | 0.00 | 0.00 | 51 | 1008.2 |
| 20260505014504 | 66 | 8 | 2.0 | 3.0 | 0.00 | 0.00 | 0.00 | 50 | 1008.2 |
| 20260505013003 | 67 | 12 | 3.0 | 6.0 | 0.00 | 0.00 | 0.00 | 48 | 1008.2 |
| 20260505012005 | 69 | 23 | 3.0 | 7.0 | 0.00 | 0.00 | 0.00 | 44 | 1008.0 |
| 20260505010503 | 69 | 5 | 3.0 | 6.0 | 0.00 | 0.00 | 0.00 | 39 | 1007.7 |
| 20260505005004 | 70 | 11 | 2.0 | 5.0 | 0.00 | 0.00 | 0.00 | 38 | 1007.4 |
| 20260505004504 | 70 | 20 | 2.0 | 7.0 | 0.00 | 0.00 | 0.00 | 38 | 1007.4 |
| 20260505003503 | 70 | 7 | 3.0 | 5.0 | 0.00 | 0.00 | 0.00 | 38 | 1007.3 |
| 20260505002503 | 70 | 18 | 3.0 | 6.0 | 0.00 | 0.00 | 0.00 | 38 | 1007.2 |
| 20260505002003 | 70 | 19 | 4.0 | 6.0 | 0.00 | 0.00 | 0.00 | 37 | 1007.1 |
| 20260505001004 | 71 | 16 | 2.0 | 8.0 | 0.00 | 0.00 | 0.00 | 37 | 1007.0 |
| 20260505000003 | 71 | 5 | 3.0 | 8.0 | 0.00 | 0.00 | 0.00 | 37 | 1006.8 |
| 20260504235503 | 71 | 8 | 3.0 | 8.0 | 0.00 | 0.00 | 0.00 | 37 | 1006.7 |
| 20260504235004 | 71 | 14 | 5.0 | 9.0 | 0.00 | 0.00 | 0.00 | 36 | 1006.7 |
| 20260504231003 | 72 | 12 | 5.0 | 10.0 | 0.00 | 0.00 | 0.00 | 35 | 1006.1 |
| 20260504225005 | 72 | 22 | 2.0 | 9.0 | 0.00 | 0.00 | 0.00 | 35 | 1006.0 |
| 20260504224003 | 73 | 16 | 4.0 | 8.0 | 0.00 | 0.00 | 0.00 | 34 | 1006.2 |
| 20260504222004 | 73 | 14 | 5.0 | 9.0 | 0.00 | 0.00 | 0.00 | 34 | 1006.2 |
| 20260504221005 | 73 | 18 | 5.0 | 9.0 | 0.00 | 0.00 | 0.00 | 34 | 1006.2 |
| 20260504220504 | 73 | 359 | 4.0 | 12.0 | 0.00 | 0.00 | 0.00 | 34 | 1006.3 |
| 20260504220004 | 73 | 321 | 3.0 | 8.0 | 0.00 | 0.00 | 0.00 | 34 | 1006.3 |
| 20260504215503 | 73 | 7 | 2.0 | 6.0 | 0.00 | 0.00 | 0.00 | 34 | 1006.5 |
| 20260504215004 | 73 | 4 | 3.0 | 9.0 | 0.00 | 0.00 | 0.00 | 34 | 1006.5 |
| 20260504214504 | 74 | 359 | 5.0 | 8.0 | 0.00 | 0.00 | 0.00 | 33 | 1006.6 |
| 20260504214004 | 73 | 14 | 4.0 | 8.0 | 0.00 | 0.00 | 0.00 | 34 | 1006.6 |
| 20260504212503 | 74 | 5 | 4.0 | 10.0 | 0.00 | 0.00 | 0.00 | 34 | 1006.6 |
| 20260504212004 | 74 | 9 | 3.0 | 9.0 | 0.00 | 0.00 | 0.00 | 33 | 1006.7 |
| 20260504211003 | 73 | 44 | 3.0 | 8.0 | 0.00 | 0.00 | 0.00 | 33 | 1006.8 |
| 20260504205003 | 74 | 1 | 4.0 | 9.0 | 0.00 | 0.00 | 0.00 | 33 | 1006.6 |
| 20260504204504 | 74 | 0 | 4.0 | 12.0 | 0.00 | 0.00 | 0.00 | 32 | 1006.7 |
| 20260504202504 | 74 | 17 | 4.0 | 8.0 | 0.00 | 0.00 | 0.00 | 33 | 1006.8 |
| 20260504202005 | 74 | 349 | 5.0 | 12.0 | 0.00 | 0.00 | 0.00 | 32 | 1006.7 |
| 20260504201505 | 74 | 359 | 3.0 | 8.0 | 0.00 | 0.00 | 0.00 | 32 | 1006.8 |
| 20260504195504 | 74 | 338 | 3.0 | 8.0 | 0.00 | 0.00 | 0.00 | 32 | 1007.1 |
| 20260504193004 | 73 | 12 | 3.0 | 8.0 | 0.00 | 0.00 | 0.00 | 33 | 1007.1 |
| 20260504190504 | 73 | 2 | 5.0 | 9.0 | 0.00 | 0.00 | 0.00 | 34 | 1007.5 |
| 20260504185004 | 72 | 14 | 3.0 | 10.0 | 0.00 | 0.00 | 0.00 | 34 | 1007.8 |
| 20260504184504 | 72 | 348 | 5.0 | 12.0 | 0.00 | 0.00 | 0.00 | 34 | 1007.9 |
| 20260504184005 | 72 | 10 | 5.0 | 10.0 | 0.00 | 0.00 | 0.00 | 34 | 1008.0 |
| 20260504183504 | 71 | 28 | 6.0 | 10.0 | 0.00 | 0.00 | 0.00 | 34 | 1007.9 |
| 20260504181005 | 71 | 357 | 3.0 | 12.0 | 0.00 | 0.00 | 0.00 | 35 | 1008.2 |
| 20260504180004 | 71 | 37 | 3.0 | 7.0 | 0.00 | 0.00 | 0.00 | 36 | 1008.4 |
| 20260504171504 | 70 | 25 | 3.0 | 8.0 | 0.00 | 0.00 | 0.00 | 37 | 1009.0 |
| 20260504171005 | 69 | 13 | 3.0 | 8.0 | 0.00 | 0.00 | 0.00 | 37 | 1009.0 |
| 20260504170503 | 69 | 356 | 5.0 | 10.0 | 0.00 | 0.00 | 0.00 | 37 | 1009.2 |
| 20260504151005 | 65 | 2 | 3.0 | 8.0 | 0.00 | 0.00 | 0.00 | 41 | 1010.7 |
| 20260504141004 | 62 | 7 | 4.0 | 12.0 | 0.00 | 0.00 | 0.00 | 44 | 1011.1 |